EW1472 Cedar Creek AU current weather conditions

sailwx.info

Wind from 275

Air temperature 17.8° C
Dewpoint 15.0° C

Last reported at 2020-Aug-12 05:59 UTC.
Time now 2020-Aug-12 06:39 UTC

Location: S 27°19' E 152°48'.
View on Google Maps.

See reports from other nearby stations

  
Tides and Currents Weather Stations Pressure Air Temp Water Temp Dewpoint Dewpoint Depression Visibility Wind Speed Wind Dir Waves Ship Positions
date/time (UTC)wind fromknots sea level pressurealtimeterstation pressurevisibilityair tempwater tempwave heightnotes
2020-Aug-12 05:59 275 17.8
2020-Aug-12 05:49 275 18.3
2020-Aug-12 05:39 261 18.9
2020-Aug-12 05:29 259 18.9
2020-Aug-12 05:19 265 18.9
2020-Aug-12 05:09 264 18.9
2020-Aug-12 04:59 182 18.9
2020-Aug-12 04:49 222 19.4
2020-Aug-12 04:39 263 19.4
2020-Aug-12 04:29 278 19.4
2020-Aug-12 04:19 227 19.4
2020-Aug-12 04:09 279 19.4
2020-Aug-12 03:59 286 19.4
2020-Aug-12 03:49 276 19.4
2020-Aug-12 03:39 265 19.4
2020-Aug-12 03:29 245 19.4
2020-Aug-12 03:19 161 19.4
2020-Aug-12 03:09 181 20.0
2020-Aug-12 02:59 178 20.6
2020-Aug-12 02:49 306 20.0
2020-Aug-12 02:39 261 0 gusting 0 20.0
2020-Aug-12 02:29 261 19.4
2020-Aug-12 02:19 215 20.0
2020-Aug-12 02:09 201 19.4
2020-Aug-12 01:59 259 19.4
2020-Aug-12 01:49 159 20.0
2020-Aug-12 01:39 132 0 gusting 0 19.4
2020-Aug-12 01:29 178 18.9
2020-Aug-12 01:19 168 18.9
2020-Aug-12 01:09 168 17.8
2020-Aug-12 00:59 257 17.2
2020-Aug-12 00:49 257 17.8
2020-Aug-12 00:39 257 17.8
2020-Aug-12 00:29 257 17.8
2020-Aug-12 00:19 263 17.8
2020-Aug-12 00:08 262 17.8
2020-Aug-11 23:58 323 17.2
2020-Aug-11 23:48 225 16.7
2020-Aug-11 23:38 225 16.1
2020-Aug-11 23:28 225 15.6
2020-Aug-11 23:18 225 15.6
2020-Aug-11 23:08 225 15.0
2020-Aug-11 22:58 225 14.4
2020-Aug-11 22:48 225 14.4
2020-Aug-11 22:38 225 14.4
2020-Aug-11 22:28 225 14.4
2020-Aug-11 22:18 225 13.9
2020-Aug-11 21:58 225 13.3
2020-Aug-11 21:48 225 12.8
2020-Aug-11 21:38 225 12.8
2020-Aug-11 21:28 225 13.3
2020-Aug-11 21:18 225 13.3
2020-Aug-11 21:08 225 13.3
2020-Aug-11 20:58 225 13.3
2020-Aug-11 20:48 225 13.3
2020-Aug-11 20:38 225 13.3
2020-Aug-11 20:28 225 13.3
2020-Aug-11 20:18 225 13.3
2020-Aug-11 20:08 225 13.3
2020-Aug-11 19:58 225 13.3
2020-Aug-11 19:48 225 13.3
2020-Aug-11 19:38 225 13.3
2020-Aug-11 19:28 225 12.8
2020-Aug-11 19:18 225 12.8
2020-Aug-11 19:08 322 12.8
2020-Aug-11 18:58 322 12.8
2020-Aug-11 18:48 322 12.8
2020-Aug-11 18:38 322 12.8
2020-Aug-11 18:28 322 12.8
2020-Aug-11 18:18 322 12.8
2020-Aug-11 18:08 322 12.8
2020-Aug-11 17:58 322 12.2
2020-Aug-11 17:48 322 12.2
2020-Aug-11 17:38 322 12.2
2020-Aug-11 17:28 322 12.2
2020-Aug-11 17:18 322 12.2
2020-Aug-11 17:08 322 12.2
2020-Aug-11 16:58 322 12.2
2020-Aug-11 16:48 322 12.2
2020-Aug-11 16:38 322 12.2
2020-Aug-11 15:38 322 11.7
2020-Aug-11 15:28 322 11.7
2020-Aug-11 15:18 322 11.7
2020-Aug-11 15:08 322 11.7
2020-Aug-11 14:58 322 11.7
2020-Aug-11 14:48 322 11.7
2020-Aug-11 14:38 322 11.7
2020-Aug-11 14:27 322 11.7
2020-Aug-11 14:17 322 11.7
2020-Aug-11 14:07 322 11.7
2020-Aug-11 13:57 322 11.7
2020-Aug-11 13:47 322 12.2
2020-Aug-11 13:37 322 12.2
2020-Aug-11 13:27 322 12.2
2020-Aug-11 13:17 322 12.2
2020-Aug-11 13:07 322 12.2
2020-Aug-11 12:57 322 12.2
2020-Aug-11 12:48 322 12.2
2020-Aug-11 12:37 322 12.2
2020-Aug-11 12:27 322 12.2
2020-Aug-11 12:17 322 12.2
2020-Aug-11 12:07 322 12.8
2020-Aug-11 11:57 322 12.8
2020-Aug-11 11:47 322 12.8
2020-Aug-11 11:37 322 12.8
2020-Aug-11 11:27 322 12.8
2020-Aug-11 11:17 322 12.8
2020-Aug-11 11:07 322 12.8
2020-Aug-11 10:58 322 12.8
2020-Aug-11 10:47 322 12.8
2020-Aug-11 10:37 322 12.8
2020-Aug-11 10:27 322 12.8
2020-Aug-11 10:17 322 12.8
2020-Aug-11 10:07 322 12.8
2020-Aug-11 09:57 322 12.8
2020-Aug-11 09:47 322 13.3
2020-Aug-11 09:37 322 13.3
2020-Aug-11 09:27 322 13.3
2020-Aug-11 09:17 322 13.3
2020-Aug-11 09:07 322 13.3
2020-Aug-11 08:57 322 13.3
2020-Aug-11 08:47 322 13.3
2020-Aug-11 08:37 322 13.9
2020-Aug-11 08:27 322 13.9
2020-Aug-11 08:17 322 14.4
2020-Aug-11 08:07 322 14.4
2020-Aug-11 07:57 322 14.4
2020-Aug-11 07:47 322 15.0
2020-Aug-11 07:37 322 15.0
2020-Aug-11 07:27 322 15.0
2020-Aug-11 07:17 322 15.0
2020-Aug-11 07:07 322 15.0
2020-Aug-11 06:57 323 15.0
2020-Aug-11 06:47 323 15.6
2020-Aug-11 06:37 323 15.6
2020-Aug-11 06:27 323 16.1
2020-Aug-11 06:17 323 16.1
2020-Aug-11 06:07 323 16.1
2020-Aug-11 05:57 323 16.1
2020-Aug-11 05:47 323 16.1
2020-Aug-11 05:37 323 16.1
2020-Aug-11 05:27 323 16.1
2020-Aug-11 05:17 323 16.1
2020-Aug-11 05:07 323 16.1
2020-Aug-11 04:57 323 16.1
2020-Aug-11 04:47 323 16.1
2020-Aug-11 04:36 323 16.1
2020-Aug-11 04:26 323 16.7
2020-Aug-11 04:16 323 0 gusting 0 16.7
2020-Aug-11 04:07 323 16.7
2020-Aug-11 03:56 323 16.7
2020-Aug-11 03:46 323 16.7
2020-Aug-11 03:36 323 17.2
2020-Aug-11 03:26 323 17.2
2020-Aug-11 03:16 323 17.2
2020-Aug-11 03:06 323 17.8
2020-Aug-11 02:56 313 17.8
2020-Aug-11 02:46 313 17.8
2020-Aug-11 02:36 255 17.8
2020-Aug-11 02:26 055 17.8
2020-Aug-11 02:16 279 17.2
2020-Aug-11 02:06 314 17.8
2020-Aug-11 01:56 152 17.8
2020-Aug-11 01:46 152 17.2
2020-Aug-11 01:36 319 17.2
2020-Aug-11 01:26 314 17.2
2020-Aug-11 01:16 331 16.1
2020-Aug-11 01:06 324 16.1
2020-Aug-11 00:56 324 15.6
2020-Aug-11 00:46 324 15.6
2020-Aug-11 00:36 324 15.0
2020-Aug-11 00:26 324 15.0
2020-Aug-11 00:16 324 14.4
2020-Aug-11 00:06 322 13.9
2020-Aug-10 23:56 322 0 gusting 0 13.9
2020-Aug-10 23:46 322 13.3
2020-Aug-10 23:36 322 13.3
2020-Aug-10 23:26 322 13.3
2020-Aug-10 23:16 326 13.3
2020-Aug-10 23:06 326 13.3
2020-Aug-10 22:56 326 13.3
2020-Aug-10 22:46 326 13.3
2020-Aug-10 22:36 077 13.3
2020-Aug-10 22:26 300 12.8
2020-Aug-10 22:16 319 12.8
2020-Aug-10 22:06 322 12.8
2020-Aug-10 21:56 319 12.8
2020-Aug-10 21:46 288 1 gusting 2 12.8
2020-Aug-10 21:36 314 0 gusting 1 12.8
2020-Aug-10 21:26 297 0 gusting 2 12.8
2020-Aug-10 21:16 335 1 gusting 4 12.8
2020-Aug-10 21:06 335 0 gusting 3 12.2
2020-Aug-10 20:56 314 12.2
2020-Aug-10 20:46 322 0 gusting 1 12.2
2020-Aug-10 20:36 300 12.2
2020-Aug-10 20:26 322 0 gusting 1 12.2
2020-Aug-10 20:16 303 12.2
2020-Aug-10 20:06 334 0 gusting 1 12.2
2020-Aug-10 19:56 305 11.7
2020-Aug-10 19:46 303 11.7
2020-Aug-10 19:36 318 11.7
2020-Aug-10 19:26 331 11.7
2020-Aug-10 19:15 305 11.7
2020-Aug-10 19:05 313 11.1
2020-Aug-10 18:55 277 11.1
2020-Aug-10 18:25 292 11.1
2020-Aug-10 18:15 289 11.1
2020-Aug-10 18:05 291 11.1
2020-Aug-10 17:55 291 11.1
2020-Aug-10 17:45 309 11.7
2020-Aug-10 17:35 303 11.7
2020-Aug-10 17:25 282 11.7
2020-Aug-10 17:15 218 0 gusting 1 11.7
2020-Aug-10 17:05 332 11.7
2020-Aug-10 16:55 282 0 gusting 0 11.7
2020-Aug-10 16:45 305 11.7
2020-Aug-10 16:35 280 11.7
2020-Aug-10 16:25 282 11.7
2020-Aug-10 16:15 299 0 gusting 0 11.7
2020-Aug-10 16:05 099 11.7
2020-Aug-10 15:55 294 11.7
2020-Aug-10 15:45 301 11.7
2020-Aug-10 15:35 269 11.7
2020-Aug-10 15:25 287 11.7
2020-Aug-10 15:15 247 11.7
2020-Aug-10 15:05 286 11.7
2020-Aug-10 14:55 236 12.2
2020-Aug-10 14:45 099 0 gusting 1 12.2
2020-Aug-10 14:35 288 0 gusting 0 12.2
2020-Aug-10 14:25 269 12.2
2020-Aug-10 14:15 294 0 gusting 2 12.2
2020-Aug-10 14:05 282 12.2
2020-Aug-10 13:55 282 1 gusting 3 12.2
2020-Aug-10 13:45 250 0 gusting 2 12.2
2020-Aug-10 13:35 274 0 gusting 2 12.2
2020-Aug-10 13:25 253 12.2
2020-Aug-10 13:15 327 0 gusting 3 12.2
2020-Aug-10 13:05 247 12.2
2020-Aug-10 12:55 341 2 gusting 5 12.2
2020-Aug-10 12:45 302 0 gusting 3 12.2
2020-Aug-10 12:35 109 12.2
2020-Aug-10 12:25 063 12.2
2020-Aug-10 12:15 314 0 gusting 3 12.2
2020-Aug-10 12:05 229 12.2
2020-Aug-10 11:55 244 0 gusting 2 12.8
2020-Aug-10 11:45 266 12.8
2020-Aug-10 11:35 277 12.8
2020-Aug-10 11:25 248 0 gusting 1 12.2
2020-Aug-10 11:15 300 12.2
2020-Aug-10 11:05 281 12.8
2020-Aug-10 10:55 084 12.2
2020-Aug-10 10:45 239 12.8
2020-Aug-10 10:35 303 12.8
2020-Aug-10 10:24 296 0 gusting 2 12.8
2020-Aug-10 10:14 276 0 gusting 2 12.2
2020-Aug-10 10:04 241 12.8
2020-Aug-10 09:54 279 3 gusting 3 12.8
2020-Aug-10 09:44 298 0 gusting 3 12.8
2020-Aug-10 09:34 230 12.8
2020-Aug-10 09:24 035 0 gusting 4 12.8
2020-Aug-10 09:14 252 12.8
2020-Aug-10 09:04 319 0 gusting 3 12.2
2020-Aug-10 08:54 259 1 gusting 2 12.2
2020-Aug-10 08:44 296 12.2
2020-Aug-10 08:34 255 0 gusting 3 12.2
2020-Aug-10 08:24 292 12.2
2020-Aug-10 08:14 322 12.2
2020-Aug-10 08:04 299 12.2
2020-Aug-10 07:54 253 0 gusting 7 12.2
2020-Aug-10 07:44 276 1 gusting 2 12.2
2020-Aug-10 07:34 233 12.2
2020-Aug-10 07:24 091 0 gusting 4 12.2
2020-Aug-10 07:14 302 3 gusting 3 12.2
2020-Aug-10 07:04 263 12.2
2020-Aug-10 06:54 098 12.2
2020-Aug-10 06:44 277 0 gusting 4 12.2
2020-Aug-10 06:34 288 0 gusting 7 12.2
2020-Aug-10 06:24 310 0 gusting 3 12.2
2020-Aug-10 06:14 245 12.2
2020-Aug-10 06:04 328 2 gusting 8 12.8